GFSSE_con_sbcape_159.txt.gz
CAPE
895 1157 1692 1220 1141 1172 1147 692 475 714 1070 1015 966 1207 1491 1324 1597 1417 1355 1031 1012 960 884 963 742 472 267 163 139 367 318 355 399 442 406 465 630 137 43 43 22 21 302
1051 1126 1855 1343 1408 1102 1239 1060 656 462 711 907 1075 959 1365 1481 1388 1380 1188 1065 909 869 1003 979 813 811 564 319 161 355 368 283 428 377 295 527 594 145 16 173 218 94 212
1162 1271 1116 2107 2062 1366 1643 1294 1013 693 431 555 780 946 1158 1321 1459 1419 1169 985 1032 1116 1233 1067 960 715 478 325 209 219 237 341 334 253 397 326 433 423 32 148 418 271 269
1264 1303 1001 2321 2570 1984 1492 1566 1197 738 502 865 1034 846 1162 1367 1482 1387 1111 922 1070 1164 1313 1120 781 559 507 283 104 162 274 269 209 123 65 117 167 350 240 42 80 136 305
1459 1334 1116 2820 2714 2284 2190 1675 1383 1030 496 1356 780 1236 1060 1445 1450 1319 1104 1038 1165 1302 1233 1140 944 605 508 267 75 164 186 144 66 114 117 307 353 346 210 92 68 74 235
1676 1516 1653 2813 2870 2451 2395 2110 1637 1280 710 1315 972 1021 1480 1440 1459 1287 1099 1118 1256 1270 1192 1109 881 635 307 181 130 112 68 43 95 111 211 203 248 292 210 148 211 409 231
1803 1654 1370 2593 2491 2520 2642 2210 1856 1452 928 1075 1153 1616 1520 1400 1394 1235 1171 1421 1210 1276 1243 1008 782 525 172 76 15 10 14 0 19 84 119 108 128 248 175 132 129 106 102
1890 1729 1522 2494 2581 2572 2465 2277 1874 1277 933 969 1207 1579 1451 1446 1422 1300 1308 1496 1275 1254 1227 944 665 528 216 45 1 0 0 0 1 25 52 59 173 74 87 94 108 116 97
1921 1878 2003 2201 2004 2505 2539 2399 1901 1163 1201 1034 1213 1563 1568 1481 1358 1505 1365 1489 1375 1435 1257 987 757 456 84 30 0 0 0 0 1 8 15 30 145 45 76 77 93 95 95
2080 2082 2123 2298 2078 2054 2148 2525 2312 2130 2005 1804 1805 1717 1932 1964 1615 1545 1476 1442 1425 1345 1039 873 691 323 148 0 0 0 0 0 1 6 16 52 73 67 71 65 60 53 77
2072 2151 2121 2190 2035 1910 1797 2153 2454 2341 1713 1731 1926 1799 1656 1694 1567 1432 1381 1667 1367 1249 996 836 632 233 46 1 0 0 0 0 0 9 17 118 56 47 55 59 62 64 66
2040 2128 2118 2080 2084 2019 1730 1886 1784 1758 1641 1353 1584 1462 1400 1430 1545 1373 1249 1553 1353 1248 1005 759 557 118 31 0 0 0 0 0 0 12 27 53 31 38 35 28 24 23 24
1653 1805 1975 2104 2006 1875 1834 1860 1661 1507 1776 1427 1272 1303 1237 1306 1555 1431 1450 1256 1305 1110 1207 794 377 36 0 0 0 0 0 0 0 15 44 60 35 24 26 22 22 32 32
434 1224 1779 1762 1776 1728 1747 1684 1433 1204 1149 1170 1011 911 960 778 1147 1191 1289 860 1134 1026 927 591 137 0 0 0 0 0 0 2 8 18 35 56 50 31 47 50 45 44 34
97 503 1031 1246 1457 1561 1440 731 577 393 709 756 618 579 599 541 561 310 276 253 526 756 683 190 6 0 0 0 0 0 0 2 8 13 34 48 71 74 67 63 51 38 23
39 117 362 727 1031 1135 1140 329 325 483 287 230 233 345 216 288 257 291 181 208 370 435 271 20 0 0 0 0 0 0 0 3 6 26 31 66 95 98 66 60 49 33 17
0 0 0 159 536 904 822 240 235 316 321 249 196 112 61 152 246 312 325 334 507 389 237 7 0 0 0 0 0 0 0 9 5 17 55 81 76 85 67 46 26 24 23
0 0 0 0 43 378 428 216 112 155 277 224 253 136 79 46 126 174 166 160 211 109 199 41 0 0 0 0 0 0 1 20 3 15 16 24 44 62 60 62 38 26 24
0 0 0 0 0 28 262 152 64 50 117 215 268 177 252 268 33 14 140 231 174 68 124 14 6 2 0 0 0 0 0 21 11 11 6 11 18 42 49 66 62 41 23
0 0 0 0 0 0 11 104 26 20 24 54 188 324 355 402 197 13 86 206 108 121 16 20 6 6 2 2 1 0 0 6 2 6 8 17 29 35 33 30 40 32 36
0 0 0 0 0 0 0 3 6 2 1 1 140 364 560 358 292 195 121 207 302 65 71 9 6 3 5 2 0 1 0 1 0 7 14 41 31 17 17 22 23 32 37
0 0 0 0 0 0 0 0 0 5 4 12 40 120 482 266 310 254 250 194 74 165 8 17 5 8 6 3 1 0 70 15 1 10 17 23 16 2 0 0 5 6 9
0 0 0 0 0 0 0 0 0 0 0 8 3 42 209 305 219 271 266 247 101 94 26 10 6 7 5 8 0 17 42 13 19 0 2 3 0 0 0 0 0 0 0
0 0 0 0 0 0 0 0 0 0 0 2 22 61 62 66 103 164 55 4 17 143 78 13 16 9 11 2 3 0 1 3 2 7 0 0 0 0 0 0 0 0 0
0 0 0 0 0 0 0 0 0 0 0 1 2 1 2 6 27 115 73 83 192 137 66 6 7 2 0 0 0 0 0 0 0 0 2 0 0 0 0 0 0 0 0
1 1 0 0 1 0 0 0 0 0 2 1 3 1 3 4 68 57 90 134 198 177 145 66 5 3 2 2 2 0 1 5 0 0 1 1 1 0 0 0 0 0 0

GFSSE_con_sbcape_162.txt.gz
CAPE
1006 1101 1782 1289 1489 1067 633 488 836 1235 993 1100 1408 1543 1459 1542 1478 1434 1393 1069 915 787 1009 692 362 347 339 215 454 506 475 310 452 439 384 262 156 5 67 692 307 49 137
856 1024 1932 1726 1814 1223 1037 796 487 890 1068 1190 906 1329 1521 1541 1588 1471 1171 1076 973 844 1021 990 853 542 288 187 501 602 453 445 484 447 578 618 205 79 175 438 830 327 286
749 790 895 2066 1985 1079 1847 1103 782 570 702 852 1046 1006 1268 1483 1474 1402 1198 1060 1002 1151 1191 996 858 682 374 351 288 301 339 441 309 385 647 447 325 25 129 678 778 410 301
742 701 424 2077 2585 1977 1886 1432 1140 689 624 756 981 948 1320 1388 1436 1388 1092 1153 1085 1421 1223 956 720 605 383 214 267 211 424 280 148 476 203 119 235 203 61 178 375 223 236
1216 841 361 2548 2657 2407 2026 1631 1300 795 678 1088 1001 1033 1225 1467 1486 1266 1196 1095 1351 1330 1249 950 780 576 397 219 205 264 313 188 355 273 266 459 343 267 122 106 358 206 269
1637 1313 1638 2845 2805 2515 2224 1898 1547 1151 580 1609 821 1359 1150 1476 1472 1311 1265 1338 1372 1450 1313 1032 879 500 384 245 224 289 126 155 417 253 314 331 378 307 213 85 357 489 164
1796 1656 1206 2712 2741 2616 2538 2205 1797 1449 826 1448 1062 1158 1575 1571 1610 1406 1333 1328 1485 1514 1405 1076 862 472 317 147 126 119 110 265 231 180 146 144 229 241 194 133 109 109 107
1913 1732 1381 2530 2998 2831 2582 2359 2001 1628 1094 1016 1243 1723 1460 1630 1637 1448 1351 1377 1466 1423 1332 1110 864 523 236 74 15 24 15 78 109 89 82 119 239 157 177 158 119 95 108
2003 1883 1750 1670 1939 2670 2633 2308 2153 1564 1105 1097 1264 1686 1644 1715 1634 1440 1560 1526 1511 1441 1192 1121 880 541 169 55 0 0 0 53 51 44 44 96 235 134 134 86 85 94 96
2259 2201 2162 2258 1845 1545 1462 2339 2277 1667 1651 1316 1486 1747 1957 1953 1811 1694 1538 1607 1548 1410 1222 1111 806 502 136 11 0 0 0 0 41 61 45 102 128 35 43 61 71 67 70
2391 2386 2344 2367 2114 1950 1773 1870 2258 2160 2238 1978 1896 1923 1513 1308 1329 1598 1462 1696 1532 1403 1220 1060 768 427 69 0 0 0 0 9 27 58 60 124 70 57 42 26 25 25 24
2314 2474 2527 2472 2305 2110 1616 1840 1788 1653 1674 1585 1405 1212 449 874 1019 1019 1350 1509 1477 1371 1191 1033 740 300 65 1 0 0 0 3 16 58 45 76 30 29 33 28 25 21 20
1567 2182 2468 2525 2447 2238 1866 2000 1780 1682 1637 1577 1524 1540 1331 821 1045 1082 1051 1105 1395 1217 1382 1003 600 172 61 7 0 0 0 4 20 39 56 72 41 25 28 19 30 33 31
855 2035 2377 2514 2206 2175 1961 1765 1762 1682 1544 1539 1512 1546 1408 1478 1194 914 975 854 1275 1115 976 1089 1095 249 2 0 0 0 0 1 14 29 32 62 50 24 52 64 55 38 35
2 640 1902 2512 2260 1971 2173 1912 1866 1889 1770 1582 1710 1653 1587 1471 1293 1080 1061 1083 1226 1089 1036 1005 593 189 0 0 0 0 0 3 13 8 26 83 106 83 64 67 56 36 24
0 79 1026 1889 2290 2123 1743 1955 1909 1714 1771 1701 1555 1469 1488 1274 1026 989 921 1042 1067 1203 1323 778 460 109 0 0 0 0 0 7 18 10 28 60 144 118 75 59 39 32 22
0 65 831 1291 1533 1735 1499 1641 1534 1561 1476 1119 1126 1041 1218 1111 920 752 608 626 665 805 626 482 291 6 0 0 0 0 3 13 26 21 45 76 86 123 122 61 40 32 25
0 4 201 283 640 1059 1025 1094 770 884 662 1010 797 362 270 395 443 738 630 527 639 769 594 535 237 25 1 1 0 1 7 25 10 37 82 94 64 66 97 111 54 31 35
0 0 0 0 0 300 657 708 433 289 451 334 209 237 376 306 394 391 485 453 368 370 384 410 197 49 0 0 0 1 3 21 26 38 55 55 65 76 72 117 81 72 44
0 0 0 0 0 0 17 343 150 119 140 106 85 140 223 315 335 366 334 340 295 441 296 413 313 167 12 6 2 0 18 29 60 31 31 36 69 77 47 41 53 43 53
0 0 0 0 0 0 0 6 60 139 139 48 71 208 114 259 319 259 376 413 237 315 279 241 20 7 6 2 5 3 0 43 62 37 45 49 75 69 39 56 48 47 31
0 0 0 0 0 0 0 0 0 1 15 49 42 159 306 244 162 474 412 529 440 262 159 31 3 9 10 0 6 26 56 68 51 54 85 87 75 76 56 46 45 52 50
0 0 0 0 0 0 0 0 0 3 11 21 64 94 164 252 163 173 264 427 522 339 124 41 19 8 6 4 11 12 47 59 104 18 97 69 80 58 42 38 43 36 36
0 0 0 0 0 0 0 0 0 0 1 12 70 102 162 181 126 58 278 460 471 346 234 194 109 12 9 7 7 0 0 0 47 66 57 90 60 37 31 31 30 14 9
0 0 0 0 0 0 0 0 0 0 2 9 41 97 184 75 48 30 236 313 201 168 172 128 97 44 7 9 5 1 0 18 32 13 26 44 38 27 25 23 5 2 0
0 3 4 5 4 1 0 0 0 7 6 11 20 4 20 5 11 35 112 129 115 122 189 146 122 58 38 38 2 0 0 16 33 24 0 7 8 15 2 1 1 0 0

GFSSE_con_sbcape_165.txt.gz
CAPE
1220 1056 1915 1564 1035 903 938 959 1135 991 1186 1623 1486 1472 1445 1493 1366 1526 1230 989 778 779 733 399 452 379 230 562 542 348 310 626 602 244 66 243 470 578 618 994 530 76 142
708 847 2014 2220 1404 1077 622 742 972 1185 1041 964 1175 1464 1414 1481 1509 1306 1115 1042 829 917 1031 864 607 415 201 443 567 448 279 631 611 594 494 234 511 684 532 830 678 283 360
613 686 670 2309 1838 1292 1166 788 548 907 993 1152 861 1155 1340 1321 1356 1283 1147 1029 877 1146 1174 1060 786 460 396 339 623 670 393 381 382 759 711 115 19 544 522 852 651 337 420
600 696 44 2349 2531 1815 1777 1109 763 477 706 808 811 960 1209 1438 1263 1207 1118 1123 1094 1171 1142 870 647 523 408 322 282 292 376 330 641 594 269 233 63 356 464 386 429 383 333
448 548 482 2333 2673 2273 1957 1460 1073 627 656 949 970 680 1207 1439 1371 1253 1160 1202 1186 1290 1101 904 728 531 368 318 501 354 338 350 294 441 319 352 232 117 265 326 267 274 288
647 573 1389 2489 2331 2381 2237 1727 1297 811 748 1325 876 1242 1044 1495 1439 1320 1295 1333 1314 1238 1175 985 802 606 357 275 507 338 301 517 513 279 421 237 212 261 197 205 354 373 219
1371 1007 1354 2870 2642 2392 2405 2088 1618 1143 624 1654 747 1231 1271 1478 1527 1458 1444 1353 1394 1376 1277 1085 756 604 427 355 321 266 248 564 221 256 206 315 206 291 249 184 170 127 113
1356 1335 1341 2795 2909 2821 2456 2090 1920 1526 882 1500 1063 1395 1562 1589 1696 1516 1488 1364 1521 1507 1352 1115 748 477 285 148 108 89 160 508 130 143 165 180 291 260 229 172 99 100 101
1453 1436 1455 1647 2217 2752 2828 2368 1959 1817 1239 972 1255 1719 1509 1702 1747 1507 1394 1396 1599 1540 1412 1208 832 533 240 80 27 20 50 284 57 104 104 93 252 161 165 143 71 77 77
1565 1528 1531 1397 1645 1637 1502 2261 2142 2003 1490 1226 1347 1765 1883 1790 1670 1652 1569 1531 1543 1551 1383 1279 835 580 225 33 2 0 0 70 68 114 133 64 162 144 96 75 34 17 24
1680 1613 1670 1933 1911 1830 1904 1917 1795 1957 2044 1935 1825 1850 1593 1084 1424 1441 1302 1562 1483 1519 1395 1206 831 465 108 1 0 0 45 5 44 76 55 120 80 66 34 22 13 13 8
1644 1511 1192 1483 1729 1779 1690 2012 1733 1658 1169 1403 1051 758 461 570 1020 952 1213 1493 1539 1372 1221 1080 876 431 208 0 0 0 3 2 67 40 41 114 58 41 24 10 13 18 17
1161 1466 1223 1737 1958 1778 1937 2122 2156 2370 1997 1527 1369 1392 1164 893 1084 820 1237 1001 1019 1190 1288 903 715 234 60 14 0 0 3 10 57 24 53 91 50 29 27 39 36 26 33
97 1173 1366 1685 1773 1746 1758 1578 1622 1855 1777 1834 1657 1563 1619 1326 1060 963 905 626 1662 1004 929 1047 807 591 134 17 1 0 1 2 29 0 33 87 56 46 77 62 47 36 27
4 247 887 1409 1328 1209 1461 1013 940 799 1115 1034 1378 1425 1665 1783 1391 1172 1193 996 1124 1123 1199 1183 883 715 168 0 1 0 1 4 2 0 38 85 120 87 71 59 44 19 25
0 25 226 751 1075 725 621 550 471 422 410 597 546 819 1162 1136 910 689 1080 1040 1183 1500 1231 1294 1271 454 57 0 1 2 2 9 0 11 26 57 113 111 72 61 46 25 24
0 0 18 184 702 1046 630 588 1289 1091 1121 550 602 538 457 389 667 665 260 503 832 1018 818 1095 661 353 29 0 0 0 0 3 0 10 47 50 84 107 138 62 46 31 20
0 0 29 121 427 913 482 680 847 778 900 950 942 830 775 681 738 454 397 439 574 592 677 723 455 337 108 16 3 4 3 7 5 4 134 78 92 39 103 128 66 52 41
0 0 9 129 210 290 272 1021 803 589 558 388 177 410 344 489 378 210 452 366 335 306 583 530 402 240 198 25 0 0 0 0 6 36 105 87 79 88 85 112 121 95 58
0 0 0 1 0 36 276 615 498 413 373 258 148 100 184 176 138 121 182 305 330 322 177 166 150 64 47 12 0 1 0 6 27 35 59 75 93 92 84 75 91 86 83
0 0 0 0 0 0 0 38 329 122 53 150 74 59 169 140 147 144 93 160 202 256 131 215 90 15 9 9 1 2 0 5 21 44 87 94 114 89 84 85 93 65 64
0 0 0 0 0 0 0 0 0 0 14 42 32 40 143 111 130 132 93 118 275 277 234 152 23 4 4 10 0 3 7 13 32 62 89 145 122 45 56 51 30 62 51
0 0 0 0 0 0 0 0 0 0 0 4 9 10 136 86 171 130 155 143 226 297 253 114 74 2 4 7 0 1 15 12 44 58 120 142 83 56 35 27 20 32 31
0 0 0 0 0 0 0 0 0 0 1 10 19 18 90 56 78 130 87 127 202 170 199 51 70 58 12 11 14 0 0 0 0 29 68 119 97 58 40 55 15 12 27
0 0 0 0 0 0 0 0 0 0 1 11 23 42 55 72 89 100 42 94 70 262 201 222 196 85 17 9 5 1 0 0 0 1 15 62 81 82 41 38 40 24 9
0 0 0 0 0 0 0 0 0 2 5 6 24 36 55 12 24 6 92 146 105 135 117 133 224 98 38 22 5 0 0 0 0 25 8 26 67 82 31 58 43 18 5

GFSSE_con_sbcape_171.txt.gz
CAPE
457 761 1620 941 819 758 993 1470 1676 1561 1613 1497 1457 1370 1270 1338 1215 1096 926 950 821 808 555 376 284 329 227 50 593 601 534 395 160 319 405 384 544 464 375 208 497 5 52
580 954 1780 1272 914 888 1024 1170 1164 1497 1510 1529 1426 1332 1328 1447 1263 1159 997 963 1215 1005 721 481 400 292 107 211 483 515 426 375 324 238 360 395 421 617 381 419 545 92 123
675 1210 1274 1639 1159 1012 930 1150 1119 1000 1096 1345 1409 1375 1233 1239 1203 1217 1056 1029 1206 1076 680 443 300 152 90 96 439 600 371 359 465 289 228 23 159 631 457 683 607 223 142
693 1322 1301 1971 1634 1033 896 897 1066 1170 1020 809 924 1047 1389 1269 1284 1171 1052 1115 1243 1118 738 604 432 157 34 243 622 568 521 520 413 237 19 8 80 300 357 354 298 114 104
690 1046 1719 2403 2068 1898 1043 703 595 783 800 764 812 961 1123 1272 1300 1184 1055 1242 1248 1075 885 620 356 191 200 580 631 601 528 483 325 39 5 22 38 196 383 228 119 85 277
254 818 2537 2749 2472 2401 1468 1126 663 479 652 1129 611 658 1303 1277 1392 1293 1219 1274 1165 1169 941 703 369 377 532 528 564 535 452 374 104 0 3 56 49 240 303 177 150 188 77
1 1254 2289 2947 2415 2515 1956 1506 979 648 957 1004 1016 851 1130 1448 1403 1476 1406 1348 1218 1266 1024 792 612 484 318 280 379 393 393 272 4 5 0 1 76 227 150 72 44 30 27
733 1245 1781 3021 2721 3058 2395 1904 1382 885 879 1369 662 1139 1203 1492 1594 1737 1528 1247 1374 1353 1095 844 596 357 123 52 87 226 811 331 2 6 13 18 225 140 79 56 28 25 17
947 1037 1387 2324 2656 3008 2841 2746 2082 1404 1007 1633 1031 1391 1719 1583 1761 1835 1489 1098 1371 1295 1209 885 550 280 81 7 0 59 710 219 0 5 24 22 268 142 104 33 19 9 10
1187 1258 1826 2323 2364 2370 2670 2704 2465 2311 1604 1516 1374 2016 1690 1948 1997 1979 1791 1387 1408 1350 1223 874 675 372 54 0 0 0 276 69 0 0 13 42 154 79 48 25 9 15 10
1418 1716 1717 1769 1855 1781 1804 2048 2218 2011 2094 1863 1837 1916 1926 1299 1520 1618 1457 1805 1428 1422 1317 1041 600 367 64 0 0 0 0 0 4 0 0 180 45 26 31 19 11 17 9
924 1354 1404 1454 1519 1319 1646 1592 1348 1466 1395 1359 1188 1188 1326 872 1061 1244 1244 1716 1502 1449 1338 1177 698 435 116 0 0 0 0 0 0 0 9 138 31 44 27 17 17 19 19
1072 1185 1243 1194 1159 1404 1424 1081 1041 1095 1088 1061 764 486 574 261 458 985 663 701 733 1267 745 831 731 170 0 0 0 0 0 0 0 0 92 81 42 48 27 10 23 22 24
1148 1017 1050 1535 1304 1122 1008 1031 939 982 720 718 604 654 305 244 213 265 297 362 506 397 416 329 217 73 0 0 0 0 3 0 0 0 14 102 79 50 54 35 13 27 26
1228 1043 709 1301 1231 1133 1040 1040 962 846 754 544 573 520 514 329 164 97 69 108 171 255 292 266 291 137 0 7 0 2 2 0 0 0 2 186 145 45 62 50 20 26 13
1142 1015 737 1000 1260 1314 1027 1042 1037 987 762 640 510 492 526 279 292 186 94 64 106 92 67 297 180 98 7 0 0 0 0 0 0 0 3 30 154 95 51 47 50 41 41
305 900 938 720 828 1080 1005 558 351 508 272 234 470 672 462 249 156 138 55 32 138 99 167 210 139 25 0 0 0 0 0 0 0 0 7 12 63 119 87 55 67 60 51
141 560 1037 1011 671 384 265 452 406 392 296 238 252 229 186 120 26 2 0 0 38 53 67 166 85 5 0 0 0 0 0 0 1 5 8 3 0 20 110 151 85 66 67
0 64 458 716 433 247 429 306 254 340 252 223 160 81 106 260 127 0 1 0 4 67 113 116 2 0 0 0 0 0 2 6 25 32 9 6 2 1 25 112 147 104 65
0 0 17 442 325 117 387 204 143 129 94 23 30 8 47 69 133 0 0 15 0 48 43 35 19 0 0 0 1 1 0 0 5 6 19 26 14 0 13 19 30 61 87
0 0 0 12 63 291 358 209 58 78 26 0 0 0 0 0 0 0 0 7 12 32 26 47 0 0 2 0 0 0 0 0 0 4 4 24 18 4 0 1 19 19 63
0 0 0 0 0 45 252 40 11 0 0 0 0 0 0 0 0 0 0 0 1 0 0 3 1 0 2 0 0 0 1 0 0 0 0 3 0 2 13 9 25 31 23
0 0 0 0 0 0 0 0 0 0 0 0 0 0 0 0 0 0 0 0 0 0 1 2 1 1 1 1 0 0 0 2 0 1 1 3 0 0 4 5 16 16 0
0 0 0 0 0 0 0 0 0 0 0 0 0 0 0 0 0 0 0 0 4 6 5 2 0 0 0 6 3 0 0 0 0 0 0 0 6 9 21 25 7 13 0
0 0 0 0 0 0 0 0 0 0 0 0 0 0 0 0 4 0 0 0 1 13 9 1 0 0 0 3 0 0 0 0 0 0 0 0 1 13 31 23 0 1 0
0 0 0 0 0 0 0 0 0 0 0 0 0 0 0 0 0 0 0 0 0 25 10 6 1 0 0 0 0 0 0 0 0 0 0 0 0 1 21 0 0 0 0

GFSSE_con_sbcape_174.txt.gz
CAPE
175 836 1668 1094 819 832 1110 1263 1356 1610 1588 1408 1477 1220 1379 1060 1048 999 1115 831 799 504 351 254 171 98 78 590 546 422 353 230 508 441 398 306 389 375 345 274 284 10 15
313 916 1673 1183 773 831 1329 1730 1796 1525 1499 1534 1480 1177 1237 1328 1133 987 1009 1248 1053 608 427 292 286 35 274 480 602 371 360 382 406 397 360 431 419 527 315 257 543 96 71
722 967 1165 1481 996 946 1105 1109 1313 1345 1526 1410 1319 1243 1171 1130 1200 1082 1038 1235 1183 636 434 233 120 22 292 620 538 507 485 446 319 372 230 24 157 492 357 391 333 196 226
906 1073 993 1583 1605 1179 1101 1058 1075 994 1048 1219 1243 1033 1029 1275 1261 1119 1074 1233 1172 771 562 338 125 86 604 588 528 472 552 425 356 218 4 0 85 232 283 152 109 189 119
1081 1014 1079 1918 1737 1569 1017 1130 1133 1113 963 841 916 1099 1349 1392 1266 1156 1127 1258 1159 904 602 324 222 495 678 686 700 541 528 411 270 35 4 8 30 252 343 177 78 99 84
1095 1207 1874 2243 1732 1608 950 772 785 914 861 734 846 1042 1272 1401 1281 1265 1166 1164 1172 957 650 391 396 556 603 589 557 641 462 279 58 0 0 44 33 257 162 41 19 20 66
710 1493 2122 2490 1855 1810 1441 955 613 667 1052 1109 754 787 1488 1524 1497 1382 1339 1267 1211 1073 798 637 471 372 339 396 477 535 265 103 0 0 0 6 100 205 109 20 20 31 15
556 1861 2134 2792 2667 2699 2022 1383 935 750 1305 1055 1270 923 1179 1570 1645 1568 1501 1279 1240 1203 925 725 440 192 58 64 292 515 184 32 0 0 8 11 294 165 77 25 12 26 20
538 1653 2151 2250 2380 3078 2662 2238 1581 924 1578 1245 797 1259 1666 1546 1978 1804 1458 1220 1295 1250 1054 747 363 147 20 0 202 452 201 24 0 1 16 24 400 85 60 29 13 9 14
1047 1356 1955 2251 2360 2579 2363 2699 2412 1881 1656 1751 1284 1780 1813 1880 1947 2015 1820 1216 1297 1125 1156 882 502 182 20 0 33 235 67 0 0 0 3 29 85 38 50 33 17 11 21
1059 1320 1932 2203 2136 2125 2323 2402 2674 2337 2060 2084 1958 2145 1925 1315 1448 1720 1500 1684 1314 1204 1252 951 630 354 38 0 0 14 4 0 0 0 1 154 30 25 47 30 18 13 17
1379 1532 1667 1931 1920 1832 2135 2000 1720 1695 1688 1416 1366 1506 1335 961 1100 1343 1306 1754 1570 1387 1435 1167 707 480 93 0 0 0 0 0 0 0 8 155 31 46 36 28 16 20 19
1327 1570 1603 1653 1509 1420 1690 1334 1159 1249 1164 1128 1007 816 1041 802 445 818 666 898 930 1470 1057 1059 699 197 0 0 0 0 0 0 0 0 120 142 45 43 32 22 38 44 43
1124 1432 1389 1375 1350 1268 1265 1160 1062 1070 956 943 912 664 429 258 199 299 392 264 507 444 505 405 162 40 0 0 0 0 0 0 0 0 116 178 46 43 46 42 37 48 49
1137 1282 1181 1176 1242 1102 1124 938 904 860 821 733 769 557 342 273 200 177 191 141 286 280 274 189 28 24 1 0 0 12 0 0 0 0 29 221 143 51 47 55 48 46 55
1002 939 848 1274 1050 969 816 900 850 786 738 598 564 542 496 277 181 117 104 137 201 186 184 186 115 8 0 0 0 7 2 0 0 1 36 86 217 148 35 69 64 61 54
850 955 913 1286 1121 966 839 780 787 833 745 649 567 552 559 264 180 96 96 105 117 54 52 119 9 0 0 0 0 0 0 0 0 6 17 22 71 188 149 66 56 66 64
231 1013 777 1463 1226 1063 782 463 362 444 259 310 295 423 495 251 132 29 51 29 33 17 47 60 3 0 0 0 0 1 1 0 5 6 17 14 11 19 173 169 134 82 64
21 889 856 897 1099 947 360 242 209 194 212 161 171 188 224 161 22 2 0 0 0 1 31 34 0 0 0 0 0 1 1 0 7 10 17 5 8 20 39 204 154 143 59
0 715 1005 774 650 265 210 95 77 54 45 15 67 60 125 143 8 0 0 0 0 19 14 0 0 0 0 0 1 1 1 1 0 1 10 11 8 11 21 46 42 65 157
0 368 890 820 115 339 218 123 57 85 0 0 0 0 0 0 9 0 0 0 0 13 7 0 0 0 1 0 0 0 0 0 2 9 7 9 15 2 2 12 6 20 52
0 96 681 603 291 484 404 21 1 0 0 0 0 0 0 0 0 0 0 0 0 0 0 0 0 1 0 0 0 0 3 3 0 1 0 23 0 3 3 16 1 12 40
0 4 361 515 436 431 202 0 0 0 0 0 0 0 0 0 0 0 0 0 0 0 0 0 1 2 3 1 0 4 3 11 0 1 1 2 6 3 0 6 16 2 7
0 11 307 299 258 32 68 0 0 0 0 0 0 0 0 0 0 0 0 0 0 0 0 4 1 1 1 2 0 0 0 0 0 2 1 3 1 0 0 0 0 6 0
0 21 20 0 0 0 0 0 0 0 0 0 0 0 0 0 0 0 0 0 0 2 9 6 4 1 2 2 0 0 0 0 0 0 0 1 1 1 0 0 2 7 3
0 0 0 0 0 0 0 0 0 0 0 0 0 0 0 0 3 6 0 0 0 0 4 13 3 0 0 0 0 0 0 0 0 0 0 0 0 1 2 0 0 2 0